Uitslag Triatlon Roeselare top 3

Kraftman Chrono Timing
# Naam Totaal
1 Van Vaerenbergh Neal 00:58:26 89.81
2 Van De Walle Vincent 00:59:19 87.91
3 Baelde Sybren 00:59:27 87.80
4 Van Daele Tim 01:00:37 86.88
5 Cardoen Olivier 01:00:46 86.76
6 Verkempinck Ruben 01:01:21 86.30
7 Callebaut Hannes 01:02:10 85.65
8 Priem Whytic 01:02:31 85.37
9 Vandenbroele Niels 01:02:44 85.20
10 Pex Daan 01:03:24 84.67
11 Van Hevele Stijn 01:04:17 83.97
12 De Jaegere Jari 01:05:03 83.37
13 Beernaert Jochen 01:07:05 81.75
14 Tom Veranneman 01:07:29 81.44
15 Wittouck Yves 01:07:34 81.37
16 Dekiere Thijs 01:08:01 81.01
17 Desmet Cis 01:08:22 80.74
18 rondelez thijs 01:08:23 80.72
19 Defauw lieven 01:08:27 80.67
20 Vankelecom Jeroen 01:08:30 80.63
21 De Meester Wim 01:08:33 80.59
22 Claeys ALexander 01:08:36 80.55
23 Piccavet Niels 01:08:54 80.31
24 Vercaigne Dieter 01:09:01 80.22
25 Vanthomme Simon 01:09:02 80.21
26 Sabbe Jasper 01:09:21 79.96
27 Roelandts Geert 01:09:30 79.84
28 Fauvart Hans 01:09:57 79.48
29 De Craemer Bert 01:10:17 79.22
30 Van De Velde Stieven 01:10:21 79.16
31 Naert Joran 01:10:30 79.05
32 Deparcq Pieter 01:10:32 79.02
33 Verstappen Karl 01:10:51 78.77
34 Dewulf Christophe 01:11:06 78.57
35 Deslé Tim 01:11:08 78.54
36 Caron Geert 01:11:20 78.38
37 Versieren Petro 01:11:29 78.27
38 Devloo Dries 01:11:31 78.24
39 Dousy Frederik 01:11:44 78.07
40 Vandenbroucke Louise 01:11:53 75.76
41 Tempelaere Brecht 01:12:03 77.82
42 Casier Dieter 01:12:15 77.66
43 Calmeyn Klaas 01:12:25 77.53
44 De Groof Pieter 01:12:28 77.49
45 Salomez Carl 01:12:41 77.31
46 Maes Aäron 01:12:53 77.16
47 Waeyaert Dieter 01:12:57 77.10
48 Mussche Peter 01:13:09 76.94
49 Manhaeve Bengi 01:13:13 76.89
50 Hemelsoen Bram 01:13:32 76.64
51 Blontia Nico 01:13:35 76.60
52 Verhelst Christophe 01:14:03 76.23
53 Louwagie Ellen 01:14:07 73.15
54 Goyvaerts Daniël 01:14:15 76.07
55 Vermont Lies 01:14:21 73.00
56 Rollé Sam 01:14:24 75.95
57 Feryn Dries 01:14:35 75.81
58 Acke Wim 01:14:38 75.77
59 Hallewaert Steven 01:14:42 75.72
60 Braet David 01:14:49 75.62
61 Bruneel Kennith 01:14:58 75.50
62 Vandekerkhove Margot 01:15:01 72.58
63 Verfaillie Marnix 01:15:15 75.28
64 Defeyter Ine 01:15:21 72.37
65 Crombez Willem 01:15:27 75.12
66 De Meulemeester Matthia 01:15:58 74.71
67 Durabile Valentino 01:16:02 74.66
68 Demasure Woud 01:16:10 74.55
69 Vandevelde Marlies 01:16:19 71.76
70 Eeklo Nico 01:16:24 74.37
71 Franssen Whoopy 01:16:30 71.64
72 Vandemaele Steve 01:16:33 74.25
73 Clauw Björn 01:16:35 74.22
74 Callewaert Emmily 01:16:41 71.52
75 Serruys Kevin 01:16:50 71.43
76 Verlinde Robin 01:17:01 73.88
77 Vanbrabant Bjorn 01:17:05 73.83
78 Thouet Olivier 01:17:09 73.77
79 Storme Anke 01:17:20 71.11
80 Vandevelde Jasper 01:17:29 73.51
81 Ameye Kevin 01:17:33 73.46
82 Borra Wouter 01:17:35 73.43
83 Tack Emilie 01:17:38 70.92
84 Velghe Kurt 01:17:43 73.32
85 Pardaens Bert 01:17:48 73.26
86 Deboot Nico 01:17:57 73.14
87 Delatter Yannick 01:17:57 73.14
88 Defeyter Lisa 01:18:04 70.65
89 Callens Jonas 01:18:05 73.03
90 Degroote Camille 01:18:15 72.90
91 Declerck Sofie 01:18:23 70.45
92 Naessens Kjell 01:18:24 70.44
93 Vancraeynest Koen 01:18:36 72.62
94 Blomme Pieter 01:18:38 72.60
95 Huysman Andy 01:18:44 72.52
96 Verhoustraete Dennis 01:18:48 72.47
97 Van Poucke Peter 01:18:49 72.45
98 Leclercq Frederic 01:18:54 72.39
99 Demey Kristof 01:19:03 72.27
100 Bortier Jurgen 01:19:07 72.22
101 Planckaert Nico 01:19:14 72.12
102 Verholle Glenn 01:19:16 72.10
103 Vandenborre Jolien 01:19:22 69.83
104 Vanysacker Pieter 01:19:36 71.83
105 Depoortere Marie 01:19:37 69.67
106 Lagacie Pieter 01:19:39 71.79
107 Callebaut Christophe 01:19:40 71.78
108 Meire Domien 01:19:43 71.74
109 Billion Amber 01:19:44 69.59
110 Denolf Peter 01:20:01 71.50
111 Van den Eede Tom 01:20:08 71.41
112 Storme Silke 01:20:13 69.29
113 Vansevenant Kimberley 01:20:17 69.25
114 Waeghe Andy 01:20:24 71.20
115 Vanderhaeghe Dries 01:20:35 71.05
116 Swinnen Inez 01:20:37 69.04
117 Vuylsteke Martijn 01:20:54 70.80
118 Coen Ivan 01:21:04 70.67
119 Soenen Björn 01:21:10 70.59
120 Jacquemijns Patrick 01:21:16 70.51
121 Lauwerier Andy 01:21:19 70.47
122 Veramme Koen 01:21:39 70.21
123 Beelen Els 01:22:06 68.10
124 Reyntjens Frederik 01:22:11 69.78
125 PLUYM STIJN 01:22:23 69.63
126 Struyve Steven 01:22:27 69.57
127 Lava Kurt 01:22:32 69.51
128 steyaert stijn 01:22:48 69.30
129 Braeye Toon 01:23:00 69.14
130 Vanacker Björn 01:23:04 69.08
131 Vandewalle Sophie 01:23:05 67.47
132 Lyphout Bart 01:24:15 68.15
133 Degrande Miguel 01:24:21 68.07
134 Goegebeur Tom 01:24:26 68.00
135 De Laere Gregory 01:24:33 67.91
136 Verlinde Dirk 01:24:42 67.79
137 Ghyselinck Eva 01:24:48 66.39
138 Vandevondele Joris 01:24:56 67.60
139 Van Zandycke Lies 01:25:07 66.19
140 huyghe lies 01:26:01 65.62
141 Dils Sam 01:26:12 66.60
142 Favyts Jurgen 01:26:12 66.60
143 Desmedt Dries 01:26:46 66.15
144 Cogghe Frank 01:26:58 65.99
145 Robbelin Chris 01:27:04 65.91
146 Achtergaele Nicolas 01:27:16 65.76
147 Steen Matthias 01:27:20 65.70
148 Vanlede Matthias 01:27:27 65.61
149 Lebbe Patricia 01:27:37 64.61
150 Vandamme Sieglien 01:27:45 64.52
151 Holderbeke Arne 01:27:46 65.36
152 Goossens Martin 01:27:57 65.21
153 Devos Lieven 01:27:58 65.20
154 Vanderbeken Bjorn 01:27:59 65.19
155 Breyne Tom 01:28:28 64.80
156 Devriendt Griet 01:28:45 63.89
157 De Pauw Laurent 01:28:54 64.46
158 Gruyaert Emmerson 01:29:32 63.96
159 Denis Antoine 01:29:39 63.87
160 De Roy Britt 01:29:53 63.17
161 Jacobs Sophie 01:29:53 63.17
162 Cappelle Sabine 01:29:53 63.17
163 Steyaert Lieven 01:30:09 63.47
164 Rondelez Tom 01:30:21 63.31
165 Vranken Evelyn 01:30:32 62.76
166 Coysman Ulrike 01:30:43 62.65
167 Van Over Scheldt Reinhold 01:31:21 62.52
168 Mahieu Antoine 01:31:34 62.35
169 Vanhaverbeke Luc 01:32:21 61.73
170 Brecht Brackeva 01:32:33 61.57
171 Bos Wim 01:32:34 61.55
172 Notredame Filip 01:32:45 61.41
173 Ghelen Tom 01:33:09 61.09
174 Verschoore Hans 01:33:09 61.09
175 Bossuyt Daphne 01:33:41 60.67
176 De Clercq Christophe 01:34:21 60.14
177 Naessens Miek 01:34:36 60.19
178 verlinde lindsay 01:34:59 59.95
179 Vergote Bert 01:35:14 59.44
180 Rigot Kevin 01:35:52 58.94
181 Vancoillie Josfien 01:36:08 59.22
182 Bauwens Thierry 01:37:01 58.03
183 DELEU Sabine 01:37:01 58.66
184 Verkinderen Carine 01:37:02 58.65
185 Vanlooy Noël 01:37:24 57.72
186 Lauwers Kris 01:37:24 57.72
187 Denoo Annelies 01:37:54 58.10
188 Lambrecht Mathieu 01:38:06 57.17
189 Kosten Stijn 01:38:38 56.75
190 Caviggia Alessandro 01:38:39 56.73
191 Van De Velde Philippe 01:39:36 55.98
192 Jorens Noëmie 01:40:07 56.70
193 Bulckaert Melanie 01:41:00 56.14
194 Geldof Davy 01:41:27 54.51
195 Delaere Maarten 01:42:18 53.84
196 Vanneste Heidi 01:43:05 54.82
197 Legrand-dejonckere Jurg 01:44:02 52.46
198 François Chapaux 01:45:15 51.50
199 Valerie De Costere 01:47:09 52.25
200 Godderis Luc 01:48:31 48.91
201 Lambrix Niels 01:57:06 42.11
202 Inghelbrecht Mark 01:59:40 40.07
203 Maerschalck Marianne 02:07:50 39.16
204 Daghrir Cyril 02:09:14 31.99
205 Theunissen Tinneke 02:14:13 35.13
206 Coppens Evelyne 02:14:43 34.31

Afbeeldingen

Afbeeldingen van Triatlonwedstrijden.be

Reacties

  • Nog geen reacties beschikbaar